This is the latest recevied weather packets stored in our database for station/object K4CRS-13. If no packets are shown the sender has not sent any weather packets the latest 10 day(s).
| Time | Temp. | Humidity | Pressure | Rain* | Wind** | Luminosity | Snow |
|---|---|---|---|---|---|---|---|
| 1787947787 | 31.67° C | 50% | 1052.2 hPa | 0 mm | - | 668 W/m² | - |
| 1787947486 | 31.67° C | 53% | 1052.1 hPa | 0 mm | - | 655 W/m² | - |
| 1787947187 | 31.11° C | 51% | 1052.4 hPa | 0 mm | - | 660 W/m² | - |
| 1787946886 | 31.67° C | 53% | 1052.2 hPa | 0 mm | - | 686 W/m² | - |
| 1787946584 | 30.56° C | 55% | 1052.2 hPa | 0 mm | - | 700 W/m² | - |
| 1787946280 | 30.56° C | 54% | 1052.4 hPa | 0 mm | - | 613 W/m² | - |
| 1787945979 | 31.11° C | 57% | 1052.5 hPa | 0 mm | - | 736 W/m² | - |
| 1787945674 | 31.11° C | 55% | 1052.4 hPa | 0 mm | - | 741 W/m² | - |
| 1787945369 | 30.56° C | 54% | 1052.4 hPa | 0 mm | - | 752 W/m² | - |
| 1787945064 | 30.56° C | 54% | 1052.8 hPa | 0 mm | - | 770 W/m² | - |
| 1787944762 | 30.56° C | 53% | 1052.8 hPa | 0 mm | - | 828 W/m² | - |
| 1787944457 | 31.11° C | 52% | 1052.9 hPa | 0 mm | - | 799 W/m² | - |
| 1787944152 | 31.11° C | 50% | 1052.9 hPa | 0 mm | - | 752 W/m² | - |
| 1787943848 | 30.56° C | 50% | 1052.8 hPa | 0 mm | - | 739 W/m² | - |
| 1787943543 | 30.56° C | 51% | 1053 hPa | 0 mm | - | 745 W/m² | - |
| 1787943238 | 30.56° C | 55% | 1053.3 hPa | 0 mm | - | 770 W/m² | - |
| 1787942937 | 31.11° C | 53% | 1053.2 hPa | 0 mm | - | 199 W/m² | - |
| 1787942634 | 31.11° C | 52% | 1053.3 hPa | 0 mm | - | 804 W/m² | - |
| 1787942333 | 31.67° C | 48% | 1053 hPa | 0 mm | - | 197 W/m² | - |
| 1787942028 | 31.67° C | 48% | 1053.3 hPa | 0 mm | - | 836 W/m² | - |
| 1787941723 | 31.11° C | 50% | 1053.3 hPa | 0 mm | - | 828 W/m² | - |
| 1787941421 | 31.11° C | 49% | 1053.5 hPa | 0 mm | - | 819 W/m² | - |
| 1787941121 | 31.11° C | 53% | 1053.5 hPa | 0 mm | - | 828 W/m² | - |
| 1787940816 | 31.67° C | 47% | 1053.5 hPa | 0 mm | - | 798 W/m² | - |
| 1787940513 | 31.11° C | 53% | 1053.5 hPa | 0 mm | - | 808 W/m² | - |
* Rain latest hour (hover to see other rain measurements)
** Current wind speed in m/s (hover to see current wind gust speed)